Date,TemperatureHighF,TemperatureAvgF,TemperatureLowF,DewpointHighF,DewpointAvgF,DewpointLowF,HumidityHigh,HumidityAvg,HumidityLow,PressureMaxIn,PressureMinIn,WindSpeedMaxMPH,WindSpeedAvgMPH,GustSpeedMaxMPH,PrecipitationSumIn
2013-4-2,42,36,32,22,20,15,64,51,33,30.03,30.00,2,0,2,0.00
2013-4-3,54,43,29,27,22,16,73,46,25,30.12,29.98,17,4,19,0.00
2013-4-4,67,48,28,31,24,18,76,43,20,29.97,29.76,10,2,11,0.00
2013-4-5,73,54,35,40,32,26,78,47,20,29.90,29.76,8,2,9,0.00
2013-4-6,76,64,52,43,37,30,56,39,21,29.76,29.43,23,8,24,0.00
2013-4-7,81,68,50,58,48,40,82,52,24,29.65,29.52,17,5,19,0.00
2013-4-8,78,66,64,58,58,56,81,75,47,30.01,29.56,13,6,15,0.00
2013-4-9,80,72,65,62,59,56,75,65,51,30.01,29.94,23,6,26,0.00
2013-4-10,81,70,60,67,62,56,98,78,57,29.98,29.71,21,4,37,0.83
2013-4-11,57,45,40,57,38,29,99,75,63,29.89,29.78,20,9,21,0.07
2013-4-12,45,42,37,32,31,28,72,64,57,30.15,29.86,17,8,21,0.00
2013-4-13,66,50,32,41,35,29,93,59,32,30.21,30.03,13,5,16,0.00
2013-4-14,81,64,48,55,46,40,78,55,25,30.03,29.75,24,8,26,0.00
2013-4-15,68,64,58,64,58,52,99,78,64,30.03,29.87,12,5,13,0.46
2013-4-16,68,68,68,60,60,60,75,75,75,29.97,29.97,6,6,9,0.00
2013-4-17,78,69,68,66,61,60,75,74,64,29.97,29.87,16,6,20,0.00
2013-4-18,77,60,41,67,55,33,99,85,67,29.97,29.75,25,10,25,2.15
2013-4-19,54,44,38,33,28,23,73,56,32,30.25,29.95,28,12,29,0.00
2013-4-20,62,47,29,39,29,24,93,54,25,30.53,30.25,11,3,11,0.00
2013-4-21,64,52,42,41,36,31,69,56,39,30.60,30.43,17,7,18,0.00
2013-4-22,73,59,37,47,40,35,98,54,27,30.46,30.17,20,5,21,0.00
2013-4-23,62,52,39,57,48,39,99,86,57,30.22,30.08,12,3,13,0.56
2013-4-24,56,44,35,39,34,26,99,72,33,30.44,30.19,14,5,16,0.02
2013-4-25,69,50,34,39,34,28,94,59,24,30.54,30.42,11,2,11,0.00
2013-4-26,61,54,48,48,42,35,78,64,53,30.56,30.44,14,4,17,0.00
2013-4-27,53,51,48,52,50,44,99,95,75,30.47,30.11,8,3,10,0.41
2013-4-28,60,54,50,52,51,47,99,88,72,30.14,30.07,15,4,15,0.01
2013-4-29,62,56,42,57,50,42,99,80,72,30.12,30.08,3,2,6,0.00
2013-4-30,81,65,62,58,54,53,72,68,43,30.12,29.92,14,4,14,0.00
2013-5-1,86,74,53,62,56,48,94,58,30,30.14,30.00,14,3,14,0.00
2013-5-2,76,60,44,64,54,43,97,81,51,30.22,30.12,15,4,17,0.40
2013-5-3,44,42,41,44,42,40,99,98,95,30.16,29.88,11,4,12,1.71
2013-5-4,49,44,40,45,42,38,99,91,74,30.07,29.89,6,2,6,0.04
2013-5-5,65,54,44,59,51,43,99,91,74,30.06,29.95,5,2,9,0.07
2013-5-6,73,62,53,56,53,51,97,75,49,30.04,29.96,8,2,11,0.01
2013-5-7,86,68,56,61,56,54,96,69,37,30.10,30.03,9,2,11,0.00
2013-5-8,90,69,50,61,54,47,99,64,23,30.11,30.01,10,2,11,0.00
2013-5-9,76,65,61,60,57,57,90,77,55,30.04,29.90,4,0,7,0.34
2013-5-10,69,62,54,62,56,49,94,81,67,30.06,29.90,11,3,11,0.00
2013-5-11,71,60,50,54,43,30,95,58,25,30.22,30.04,17,5,24,0.00
2013-5-12,68,53,36,38,31,24,88,47,22,30.28,30.19,14,4,16,0.00
2013-5-13,80,60,36,50,38,30,98,51,19,30.27,30.08,8,2,11,0.00
2013-5-14,95,77,54,62,52,44,75,44,24,30.08,29.85,17,6,17,0.00
2013-5-15,94,82,71,65,58,49,62,45,33,30.00,29.86,16,7,23,0.00
2013-5-16,85,74,63,65,60,56,83,63,42,30.02,29.91,11,3,14,0.00
2013-5-17,80,70,60,67,62,56,93,77,60,30.04,29.98,11,2,13,0.02
2013-5-18,87,73,61,66,63,59,97,73,46,30.08,29.94,10,3,14,0.01
2013-5-19,93,81,70,73,68,62,83,66,48,29.98,29.77,19,5,21,0.00
2013-5-20,83,70,62,69,64,57,96,82,52,29.97,29.77,20,6,31,1.80
2013-5-21,84,72,63,68,63,60,99,77,50,29.90,29.77,14,4,17,0.15
2013-5-22,78,70,63,63,58,54,91,69,45,29.94,29.74,16,6,21,0.00
2013-5-23,67,62,53,59,54,50,94,77,63,30.31,29.94,13,4,14,0.01
2013-5-24,76,59,44,50,44,39,98,64,31,30.48,30.31,11,2,11,0.00
2013-5-25,71,59,47,57,51,45,97,77,48,30.42,30.21,12,3,122,0.08
2013-5-26,84,71,56,68,58,49,78,65,52,30.27,30.06,12,5,14,0.01
2013-5-27,87,72,65,69,65,62,98,79,53,30.10,29.82,14,4,19,0.50
2013-5-28,88,76,66,71,66,62,96,73,49,29.96,29.83,17,5,26,0.08
2013-5-29,81,73,66,64,62,60,84,70,55,30.03,29.92,8,2,10,0.00
2013-5-30,85,79,74,70,67,62,76,68,58,29.98,29.87,21,7,21,0.04
2013-5-31,83,71,63,72,66,61,99,85,65,29.95,29.81,21,5,21,0.97
2013-6-1,80,69,64,69,62,58,99,78,62,29.97,29.80,14,4,14,0.31
2013-6-2,72,64,60,61,58,55,87,80,69,30.10,29.96,10,4,12,0.00
2013-6-3,74,64,53,57,54,52,97,71,50,30.18,30.07,7,2,10,0.00
2013-6-4,79,64,49,61,56,48,99,78,48,30.17,30.07,9,2,9,0.00
2013-6-5,86,70,55,68,62,54,99,78,42,30.10,29.93,7,1,8,0.07
2013-6-6,83,71,60,68,62,56,99,75,49,29.95,29.90,11,3,11,0.01
2013-6-7,82,68,57,64,59,56,99,76,52,29.99,29.94,9,2,11,0.00
2013-6-8,86,71,54,68,59,54,99,69,40,30.05,29.97,8,2,9,0.00
2013-6-9,83,69,62,66,62,58,99,82,56,30.03,29.87,18,3,25,0.31
2013-6-10,83,71,62,69,64,61,98,81,56,29.99,29.85,9,3,11,0.02
2013-6-11,95,78,57,75,68,57,99,74,49,30.04,29.92,13,3,13,0.00
2013-6-12,96,86,70,77,73,68,93,65,49,30.02,29.80,24,6,24,0.00
2013-6-13,85,82,77,73,70,66,73,68,64,29.87,29.82,15,8,15,0.00
2013-6-14,88,73,58,66,62,58,99,71,45,30.17,30.02,7,2,7,0.00
2013-6-15,94,77,66,73,68,63,99,75,51,30.16,29.99,11,3,11,0.43
2013-6-16,86,76,67,77,72,67,99,90,68,30.09,29.99,6,2,10,0.30
2013-6-17,92,74,65,79,70,65,99,89,62,30.02,29.93,21,2,21,0.05
2013-6-18,93,77,63,75,67,62,99,74,44,30.04,29.98,11,3,11,0.01
2013-6-19,91,77,62,71,67,62,99,74,46,30.14,30.04,5,1,8,0.00
2013-6-20,94,79,63,75,69,62,99,74,48,30.19,30.11,14,2,14,0.00
2013-6-21,96,83,68,78,73,68,99,73,53,30.18,30.06,11,3,13,0.00
2013-6-22,93,78,70,79,71,66,93,81,61,30.15,30.07,14,3,21,0.01
2013-6-23,92,74,68,79,70,65,99,87,62,30.13,30.02,12,4,17,0.80
2013-6-24,96,82,66,80,73,66,99,77,50,30.15,30.00,9,3,13,0.00
2013-6-25,96,86,77,78,75,72,86,71,55,30.04,29.86,16,4,21,0.00
2013-6-26,84,79,76,76,74,72,94,84,73,29.94,29.80,8,4,9,0.41
2013-6-27,96,84,73,79,74,70,97,75,50,29.96,29.84,11,4,14,0.00
2013-6-28,92,82,75,75,69,62,92,66,41,29.93,29.79,14,5,17,0.00
2013-6-29,78,78,78,64,64,64,61,61,61,29.79,29.79,2,2,4,0.00
2013-6-30,78,78,78,64,64,64,61,61,61,29.79,29.79,2,2,4,0.00
2013-7-1,86,77,66,67,62,-34,76,59,1,30.05,29.79,61,3,61,0.18
2013-7-2,69,64,61,63,61,58,98,90,67,30.12,30.02,5,1,8,0.71
2013-7-3,86,74,62,73,64,62,99,75,48,30.16,30.08,9,2,11,0.01
2013-7-4,90,76,59,71,64,59,99,71,44,30.17,30.07,9,2,10,0.00
2013-7-5,88,77,64,74,68,63,99,77,52,30.15,30.06,9,3,12,0.00
2013-7-6,93,76,65,75,69,62,99,81,50,30.12,30.03,11,2,11,0.11
2013-7-7,96,82,66,76,71,65,97,71,46,30.12,30.05,8,3,11,0.00
2013-7-8,97,84,73,77,73,69,87,70,49,30.17,29.92,9,3,11,0.00
2013-7-9,83,82,81,75,74,72,79,77,75,29.95,29.94,4,2,5,0.00
2013-7-10,93,80,70,79,73,69,97,80,55,29.91,29.80,9,2,9,0.66
2013-7-11,90,76,63,70,65,62,99,73,46,29.99,29.90,8,2,11,0.00
2013-7-12,92,72,59,68,62,59,99,75,41,30.04,29.95,5,1,5,0.00
2013-7-13,91,75,57,73,64,57,99,73,45,30.02,29.93,9,2,9,0.00
2013-7-14,92,78,63,75,69,62,99,77,52,30.07,29.96,11,3,11,0.05
2013-7-15,95,82,70,79,75,70,99,81,56,30.15,30.05,8,2,11,0.04
2013-7-16,95,84,72,78,74,71,99,74,50,30.21,30.13,9,2,11,0.00
2013-7-17,102,85,72,82,75,71,99,75,45,30.24,30.10,5,1,5,0.00
2013-7-18,99,86,73,84,76,72,99,76,49,30.13,29.93,4,1,8,0.02
2013-7-19,101,88,74,78,75,71,95,67,44,29.94,29.78,9,3,10,0.00
2013-7-20,97,84,74,80,74,69,86,71,54,29.83,29.73,16,4,16,0.00
2013-7-21,87,78,72,76,72,69,93,83,63,29.85,29.76,8,1,8,0.00
2013-7-22,96,81,69,78,73,68,99,79,51,29.79,29.69,8,2,8,0.11
2013-7-23,97,83,73,77,73,66,96,72,47,29.83,29.66,10,3,12,0.00
2013-7-24,87,74,61,66,60,56,89,65,42,29.95,29.83,8,2,9,0.00
2013-7-25,61,59,58,59,58,57,99,96,89,29.96,29.95,1,0,1,0.00
2013-7-26,78,71,64,71,67,60,95,85,69,29.97,29.86,8,2,10,0.01
2013-7-27,82,69,54,67,59,53,99,73,42,29.93,29.87,11,3,26,0.00
2013-7-28,86,68,49,67,56,49,99,70,39,29.97,29.91,11,2,11,0.00
2013-7-29,85,70,53,69,61,52,99,76,47,30.07,29.97,10,2,10,0.00
2013-7-30,78,73,65,73,68,63,99,87,73,30.03,29.92,8,4,9,1.16
2013-7-31,78,78,78,72,72,72,82,82,82,29.92,29.92,5,5,7,0.00
2013-8-1,78,78,78,72,72,72,82,82,82,29.92,29.92,5,5,7,0.00
2013-8-2,78,78,78,72,72,72,82,82,82,29.92,29.92,5,5,7,0.00
2013-8-3,78,77,65,72,72,64,97,83,82,29.95,29.92,5,5,7,0.58
2013-8-4,86,73,60,74,64,60,99,76,49,30.02,29.92,6,0,8,0.00
2013-8-5,77,72,68,70,66,62,97,83,68,29.93,29.72,8,3,11,0.00
2013-8-6,96,80,70,77,73,69,99,80,51,29.77,29.68,10,3,10,0.00
2013-8-7,93,81,73,78,74,70,98,80,54,29.76,29.65,13,3,14,0.00
2013-8-8,84,76,70,77,73,69,98,90,78,29.81,29.73,6,1,8,0.09
2013-8-9,87,75,66,76,70,66,99,85,65,29.91,29.79,5,1,6,0.00
2013-8-10,92,78,64,76,68,63,99,76,47,29.99,29.91,8,2,11,0.00
2013-8-11,91,74,57,73,64,57,99,75,45,29.99,29.88,6,1,8,0.00
2013-8-12,86,73,68,77,70,66,99,90,74,29.91,29.75,4,1,6,0.34
2013-8-13,85,73,61,72,66,55,99,82,61,29.97,29.80,10,1,10,0.01
2013-8-14,82,65,51,67,57,50,99,77,48,30.05,29.96,8,2,8,0.00
2013-8-15,79,62,53,67,57,52,99,85,52,30.01,29.91,5,0,5,0.00
2013-8-16,82,67,54,68,60,53,99,81,52,30.00,29.93,7,1,8,0.00
2013-8-17,88,70,55,69,63,54,99,79,52,30.03,29.94,6,1,8,0.00
2013-8-18,91,74,61,72,66,60,98,79,51,30.02,29.91,5,1,7,0.00
2013-8-19,92,76,60,75,67,60,99,77,50,29.97,29.86,9,1,9,0.00
2013-8-20,93,78,62,75,69,61,97,76,51,29.95,29.86,6,1,8,0.00
2013-8-21,96,80,64,75,70,63,96,74,46,29.96,29.86,8,2,12,0.00
2013-8-22,98,81,67,79,73,65,94,76,52,29.94,29.85,8,2,9,0.00
2013-8-23,94,82,70,77,72,67,91,74,54,29.95,29.88,7,2,11,0.00
2013-8-24,96,79,64,75,69,63,95,75,46,30.05,29.94,8,2,11,0.00
2013-8-25,98,81,62,75,68,61,95,69,37,30.10,30.00,11,2,11,0.00
2013-8-26,101,87,75,79,75,71,89,69,42,30.05,29.90,9,3,10,0.00
2013-8-27,100,86,75,78,73,70,87,66,44,29.92,29.82,9,3,12,0.00
2013-8-28,101,85,68,76,72,66,92,66,43,29.88,29.81,9,2,10,0.00
2013-8-29,104,86,70,79,74,66,88,69,44,29.88,29.79,8,2,10,0.00
2013-8-30,104,88,73,80,75,71,92,68,43,29.81,29.67,8,2,11,0.00
2013-8-31,105,90,77,79,75,72,84,64,38,29.69,29.55,14,4,20,0.00
2013-9-1,97,84,73,81,75,70,92,76,54,29.69,29.60,11,1,17,0.00
2013-9-2,92,77,63,71,66,59,90,69,46,29.81,29.69,9,2,12,0.00
2013-9-3,92,72,54,69,61,53,96,73,43,29.93,29.81,8,1,8,0.00
2013-9-4,94,73,55,71,62,54,97,73,41,30.00,29.91,6,1,56,0.00
2013-9-5,95,74,57,73,64,56,96,73,43,30.04,29.96,7,1,7,0.00
2013-9-6,95,77,62,73,66,60,94,70,44,30.02,29.87,8,2,11,0.00
2013-9-7,100,79,60,74,67,59,94,70,40,29.89,29.74,10,2,12,0.00
2013-9-8,87,78,71,77,71,68,92,79,67,29.86,29.74,11,2,11,0.00
2013-9-9,104,86,71,78,73,68,92,68,41,29.81,29.74,9,2,11,0.00
2013-9-10,101,85,71,77,70,66,88,65,38,29.92,29.81,11,2,13,0.00
2013-9-11,89,82,65,76,72,63,93,72,63,29.97,29.91,2,1,2,0.00
2013-9-12,91,81,66,75,67,54,86,61,46,29.97,29.83,10,3,10,0.00
2013-9-13,85,68,51,64,55,48,91,66,41,29.99,29.91,8,2,10,0.00
2013-9-14,83,63,46,58,50,44,97,67,29,30.02,29.88,6,1,8,0.00
2013-9-15,87,70,52,65,58,49,88,68,46,29.95,29.83,8,2,10,0.00
2013-9-16,78,65,55,64,58,53,92,80,56,30.12,29.95,8,2,8,0.00
2013-9-17,75,64,57,66,59,54,92,84,72,30.09,29.91,8,2,8,0.00
2013-9-18,94,74,63,75,68,61,95,81,54,29.93,29.79,9,2,12,0.01
2013-9-19,96,83,73,76,72,68,86,72,50,29.83,29.69,11,4,14,0.00
2013-9-20,80,68,57,72,65,54,94,89,74,29.77,29.72,11,2,11,0.00
2013-9-21,78,62,50,59,54,50,98,77,46,29.82,29.74,12,2,12,0.00
2013-9-22,82,62,45,62,54,44,99,77,44,29.87,29.77,7,1,8,0.00
2013-9-23,52,49,49,51,48,48,98,98,95,29.82,29.81,0,0,0,0.00
2013-9-24,49,49,49,48,48,48,98,98,98,29.81,29.81,0,0,0,0.00
2013-9-25,49,49,49,48,48,48,98,98,98,29.81,29.81,0,0,0,0.00
2013-9-26,49,49,49,48,48,48,98,98,98,29.81,29.81,0,0,0,0.00
2013-9-27,49,49,49,48,48,48,98,98,98,29.81,29.81,0,0,0,0.00
2013-9-28,49,49,49,48,48,48,98,98,98,29.81,29.81,0,0,0,0.00
2013-9-29,83,57,49,60,51,48,98,84,42,29.92,29.81,8,0,8,0.00
2013-9-30,82,65,46,67,58,45,99,81,57,29.89,29.78,11,2,14,0.00
2013-10-1,86,72,63,73,66,60,94,84,65,29.93,29.84,11,3,11,0.00
2013-10-2,91,74,65,76,68,63,95,83,58,29.96,29.85,9,2,9,0.00
2013-10-3,90,78,66,75,70,64,92,76,55,29.87,29.76,13,4,14,0.00
2013-10-4,92,79,68,75,70,65,92,75,53,29.88,29.79,14,4,14,0.00
2013-10-5,81,71,55,72,66,52,94,85,67,29.85,29.74,12,4,18,0.00
2013-10-6,62,54,48,53,47,44,98,79,58,29.81,29.74,21,6,23,0.00
2013-10-7,78,58,48,56,50,47,97,77,46,30.03,29.80,13,4,14,0.00
2013-10-8,48,43,43,47,43,42,99,98,97,30.08,30.03,2,0,2,0.00
2013-10-9,43,43,43,42,42,42,98,98,98,30.08,30.08,0,0,0,0.00
2013-10-10,43,43,43,42,42,42,98,98,98,30.08,30.08,0,0,0,0.00
2013-10-14,62,60,58,55,53,50,80,77,73,29.93,29.86,5,2,7,0.00
2013-10-15,69,63,56,64,59,50,94,87,79,29.86,29.69,11,4,11,0.00
2013-10-16,64,52,42,50,45,41,99,80,59,29.86,29.77,11,4,13,0.00
2013-10-17,69,53,43,53,46,42,99,82,46,29.81,29.71,11,2,11,0.00
2013-10-18,67,54,44,50,45,41,93,74,48,29.86,29.75,14,4,14,0.00
2013-10-19,61,49,39,47,42,39,99,79,51,29.83,29.75,14,4,14,0.00
2013-10-20,76,58,38,53,45,38,99,66,38,29.77,29.65,14,4,15,0.00
2013-10-21,60,50,34,50,42,32,95,77,54,29.87,29.72,10,3,14,0.00
2013-10-22,63,44,31,49,40,30,99,87,61,29.87,29.59,15,3,23,0.00
2013-10-23,55,44,36,39,37,33,97,79,51,29.94,29.80,13,5,13,0.00
2013-10-24,52,41,27,39,33,24,99,75,52,30.22,29.93,17,4,20,0.00
2013-10-25,62,42,24,40,31,23,99,69,38,30.31,30.01,8,2,11,0.00
2013-10-26,68,51,36,50,38,29,80,62,47,30.01,29.81,13,4,17,0.00
2013-10-27,68,45,27,45,34,25,98,71,34,29.94,29.83,9,1,9,0.00
2013-10-28,75,50,29,54,42,28,99,78,44,30.05,29.85,7,1,8,0.00
2013-10-29,57,52,42,56,49,40,97,92,78,30.05,29.86,10,2,11,0.00
2013-10-30,72,64,56,67,61,56,97,90,78,29.87,29.65,10,3,12,0.00
2013-10-31,67,61,48,64,58,46,95,91,84,29.64,29.20,15,5,21,0.00
2013-11-1,65,54,46,50,47,42,96,77,56,29.67,29.44,17,5,20,0.00
2013-11-2,62,47,34,46,41,32,95,80,53,29.99,29.65,12,4,14,0.00
2013-11-3,63,46,28,48,37,28,99,75,44,30.11,29.95,14,3,17,0.00
2013-11-4,63,53,47,50,44,39,78,72,61,30.03,29.91,14,6,15,0.00
2013-11-5,61,56,51,54,51,48,97,83,73,30.07,29.80,16,5,16,0.00
2013-11-6,59,49,37,57,46,34,96,90,83,30.07,29.71,25,6,25,0.00
2013-11-7,60,42,29,44,36,28,99,80,54,30.19,30.07,14,3,14,0.00
2013-11-8,62,45,26,46,35,25,99,72,39,30.17,29.86,14,4,18,0.00
2013-11-9,71,55,38,48,42,36,93,64,41,30.04,29.85,18,5,22,0.00
2013-11-10,64,47,33,43,36,31,95,68,41,30.23,30.04,7,1,8,0.00
2013-11-11,34,34,34,31,31,31,90,90,90,30.10,30.10,0,0,0,0.00
2013-11-12,34,34,34,31,31,31,90,90,90,30.10,30.10,0,0,0,0.00
2013-11-13,40,34,34,31,29,19,90,84,51,30.10,29.87,8,1,8,0.00
2013-11-14,63,44,22,33,27,17,82,52,22,29.87,29.61,19,4,19,0.00
2013-11-15,63,50,45,45,37,30,88,61,42,29.64,29.50,10,3,12,0.00
2013-11-16,65,58,48,60,53,44,92,85,76,29.51,29.18,17,7,21,0.00
2013-11-17,80,66,48,67,53,32,90,65,31,29.55,28.95,35,10,42,0.00
2013-11-18,60,46,30,44,36,26,98,71,39,29.87,29.55,14,4,17,0.00
2013-11-19,50,37,26,36,30,24,97,75,52,29.93,29.78,8,2,8,0.00
2013-11-20,36,36,36,28,28,28,74,74,74,29.78,29.78,2,2,4,0.00
2013-11-21,36,36,36,28,28,28,74,74,74,29.78,29.78,2,2,4,0.00
2013-11-22,36,36,36,28,28,28,74,74,74,29.78,29.78,2,2,4,0.00
2013-11-23,36,31,17,28,22,8,74,70,52,30.22,29.78,8,2,8,0.00
2013-11-24,36,23,12,18,10,6,79,58,36,30.03,29.70,7,2,8,0.00
2013-11-25,36,32,27,24,19,12,65,57,50,29.71,29.43,10,4,14,0.00
2013-11-26,46,33,23,34,23,11,80,67,54,29.53,29.35,17,4,17,0.00
2013-11-27,34,23,16,15,10,6,74,58,44,29.64,29.52,14,4,14,0.00
2013-11-28,50,33,17,31,20,10,75,59,47,29.77,29.50,14,4,17,0.00
2013-11-29,51,34,17,32,24,12,87,68,47,29.86,29.64,11,2,14,0.00
2013-11-30,62,43,22,44,33,19,92,70,48,29.64,29.35,11,2,11,0.00
2013-12-1,66,45,27,46,36,24,96,74,48,29.40,29.17,8,1,8,0.00
2013-12-2,64,46,38,48,40,34,94,80,58,29.17,28.95,8,2,9,0.00
2013-12-3,48,48,44,47,47,43,97,96,93,28.97,28.92,6,3,6,0.00
2013-12-4,50,48,39,47,46,34,96,93,79,30.05,28.92,16,4,21,0.00
2013-12-5,39,27,21,34,19,14,85,72,62,30.48,30.05,18,6,18,0.00
2013-12-6,23,20,14,17,10,3,81,65,55,30.77,30.45,9,3,11,0.00
2013-12-7,32,19,9,16,7,0,72,59,42,30.89,30.63,9,2,11,0.00
2013-12-8,27,23,19,23,19,10,90,82,63,30.64,30.19,11,5,15,0.00
2013-12-9,27,23,20,22,15,11,83,71,62,30.51,30.27,14,7,14,0.00
2013-12-10,41,24,13,23,13,6,78,63,46,30.49,30.41,17,5,20,0.00
2013-12-11,16,14,13,11,10,9,83,81,79,30.49,30.47,0,0,1,0.00
2013-12-12,42,29,6,22,14,-4,77,54,37,30.82,30.44,13,3,15,0.00
2013-12-13,35,28,15,32,22,10,94,80,61,30.44,30.14,8,2,11,0.33
2013-12-14,35,31,26,34,29,22,97,91,83,30.32,30.02,14,5,17,0.13
2013-12-15,42,28,21,31,22,16,89,78,63,30.38,30.21,14,4,17,0.21
2013-12-16,41,29,24,33,25,21,91,84,71,30.32,30.17,6,1,7,0.13
2013-12-17,44,33,25,34,26,18,89,75,63,30.45,30.30,14,4,14,0.04
2013-12-18,55,38,17,37,27,13,89,66,43,30.44,30.11,11,3,12,0.00
2013-12-19,61,51,36,50,44,32,92,77,64,30.12,29.96,14,4,16,0.00
2013-12-20,70,52,35,58,46,32,92,82,65,30.06,29.86,17,7,23,0.02
2013-12-21,35,33,32,33,32,31,97,95,91,30.05,29.75,8,2,8,1.18
2013-12-22,34,32,26,32,29,21,97,89,77,30.45,29.83,16,7,17,0.08
2013-12-23,29,21,11,20,13,3,80,73,62,30.76,30.46,14,8,20,0.00
2013-12-24,26,17,5,12,3,-4,72,55,31,30.80,30.52,17,5,19,0.00
2013-12-25,36,30,23,29,23,12,82,73,63,30.54,30.40,14,5,17,0.00
2013-12-26,53,38,20,34,27,18,93,68,38,30.55,30.42,15,3,15,0.00
2013-12-27,39,39,39,28,28,28,66,66,66,30.48,30.48,4,4,5,0.00
2013-12-28,39,39,39,28,28,28,66,66,66,30.48,30.48,4,4,5,0.00
2013-12-29,48,39,39,43,28,28,81,66,66,30.48,29.62,9,4,9,0.00
2013-12-30,31,23,7,15,6,-4,68,47,30,30.23,30.07,8,3,9,0.00
2013-12-31,46,35,22,28,22,14,70,59,49,30.27,30.02,11,4,13,0.00
2014-1-1,49,33,21,35,25,17,87,73,56,30.03,29.89,8,2,9,0.00
2014-1-2,27,17,6,19,10,-1,88,72,54,30.35,29.94,14,5,14,0.00